Location: Unspecified
(49.9820°N, 20.4363°E)
Time: 03:37:40
(UTC+02:00)

Vanguard 3 - Pass Details

Date: 20 May 2026
Orbit: 507 x 3204 km, 33.3° (Epoch: 6 June)

Event Time Altitude Azimuth Distance (km) Brightness Sun altitude
Rises 14:08:07 0° 243° (WSW) 6,349 12.2 54.8°
Reaches altitude 10° 14:12:13 10° 237° (WSW) 5,602 12.2 54.4°
Maximum altitude 14:28:47 45° 173° (S) 3,940 11.7 52.5°
Drops below altitude 10° 14:45:40 10° 109° (ESE) 5,703 11.3 50.4°
Sets 14:49:53 0° 104° (ESE) 6,469 11.5 49.9°
